Shirley, NY

7:01 AM EDT on September 24, 2017 (GMT -0400)
Brookhaven

Weather History for KHWV - October, 2011

Change the Weather History Date:

Sunday, October 2, 2011

  Actual Average (KISP) Record (KISP)
Temperature  
Mean Temperature 60 °F -  
Max Temperature 66 °F 66 °F 84 °F (2013)
Min Temperature 55 °F 48 °F 36 °F (1997)
Degree Days  
Heating Degree Days 4    
Growing Degree Days 10 (Base 50)    
Moisture  
Dew Point 52 °F    
Average Humidity 78    
Maximum Humidity 100    
Minimum Humidity 48    
Precipitation  
Precipitation 0.26 in - - ()
Sea Level Pressure  
Sea Level Pressure 29.79 in    
Wind  
Wind Speed 6 mph (SSW)    
Max Wind Speed 12 mph    
Max Gust Speed 17 mph    
Visibility 9 miles    
Events Rain    
Averages and records for this station are not official NWS values.
T = Trace of Precipitation, MM = Missing Value Source: NWS Daily Summary

Daily Weather History Graph

Daily Weather History Graph

Search for Another Location

Airport or City:

Trip Planner

Search our weather history database for the weather conditions in past years. The results will help you decide how hot, cold, wet, or windy it might be!

Date:

Astronomy

Oct. 02, 2011 Rise Set
Actual Time 6:48 AM EDT 6:32 PM EDT
Civil Twilight 6:21 AM EDT 6:59 PM EDT
Nautical Twilight 5:49 AM EDT 7:31 PM EDT
Astronomical Twilight 5:17 AM EDT 8:03 PM EDT
Moon 12:54 PM EDT (10/2) 10:25 PM EDT (10/2)
Length of Visible Light 12h 38m
Length of Day
11h 43m
Waxing Crescent, 34% of the Moon is Illuminated
Oct 2
Waxing Crescent
Oct 3
First Quarter
Oct 11
Full
Oct 19
Last Quarter
Oct 26
New

Hourly Weather History & Observations

Time (EDT) Temp. Dew Point Humidity Pressure Visibility Wind Dir Wind Speed Gust Speed Precip Events Conditions
12:56 AM 57.0 °F 53.1 °F 87% 29.74 in 10.0 mi North 6.9 mph - N/A   Overcast
1:49 AM 57.2 °F 53.6 °F 88% 29.74 in 10.0 mi NNE 4.6 mph - N/A   Mostly Cloudy
2:09 AM 57.2 °F 53.6 °F 88% 29.74 in 10.0 mi Variable 4.6 mph - N/A   Mostly Cloudy
2:20 AM 57.2 °F 53.6 °F 88% 29.74 in 10.0 mi Variable 4.6 mph - N/A   Mostly Cloudy
2:56 AM 57.0 °F 54.0 °F 89% 29.74 in 10.0 mi North 5.8 mph - N/A   Overcast
3:56 AM 57.0 °F 55.0 °F 93% 29.73 in 10.0 mi Calm Calm - N/A   Overcast
4:45 AM 57.2 °F 57.2 °F 100% 29.72 in 10.0 mi Calm Calm - N/A   Overcast
4:56 AM 59.0 °F 57.0 °F 93% 29.73 in 10.0 mi Calm Calm - 0.00 in Rain Light Rain
5:04 AM 59.0 °F 57.2 °F 94% 29.75 in 1.8 mi Variable 3.5 mph - 0.10 in Rain Heavy Rain
5:07 AM 59.0 °F 57.2 °F 94% 29.75 in 1.5 mi SSW 9.2 mph 16.1 mph 0.12 in Rain Heavy Rain
5:12 AM 59.0 °F 57.2 °F 94% 29.75 in 3.0 mi SSW 11.5 mph 17.3 mph 0.13 in Rain Light Rain
5:27 AM 59.0 °F 53.6 °F 82% 29.76 in 10.0 mi South 10.4 mph - 0.14 in Rain Light Rain
5:56 AM 59.0 °F 53.1 °F 81% 29.77 in 10.0 mi South 3.5 mph - 0.15 in Rain Light Rain
6:56 AM 55.9 °F 54.0 °F 93% 29.77 in 10.0 mi Calm Calm - 0.00 in   Mostly Cloudy
7:56 AM 60.1 °F 53.1 °F 78% 29.80 in 10.0 mi South 8.1 mph - N/A   Partly Cloudy
8:56 AM 63.0 °F 48.0 °F 58% 29.81 in 10.0 mi SSW 10.4 mph - N/A   Clear
9:56 AM 63.0 °F 45.0 °F 52% 29.83 in 10.0 mi SW 11.5 mph - N/A   Clear
11:56 AM 64.9 °F 46.9 °F 52% 29.84 in 10.0 mi South 9.2 mph - N/A   Mostly Cloudy
12:56 PM 66.0 °F 46.0 °F 48% 29.83 in 10.0 mi SSW 6.9 mph - N/A   Mostly Cloudy
1:56 PM 66.0 °F 46.0 °F 48% 29.81 in 10.0 mi SSW 9.2 mph - N/A   Partly Cloudy
2:56 PM 64.9 °F 46.0 °F 50% 29.83 in 10.0 mi Variable 3.5 mph - N/A   Mostly Cloudy
3:56 PM 64.9 °F 46.9 °F 52% 29.83 in 10.0 mi South 8.1 mph - N/A   Clear
4:56 PM 64.9 °F 48.9 °F 56% 29.84 in 10.0 mi South 6.9 mph - N/A   Mostly Cloudy
7:56 PM 57.0 °F 53.1 °F 87% 29.89 in 4.0 mi SSW 4.6 mph - 0.08 in Rain Heavy Rain
8:08 PM 57.2 °F 53.6 °F 88% 29.89 in 8.0 mi SW 6.9 mph - 0.01 in Rain Light Rain
8:56 PM 55.9 °F 54.0 °F 93% 29.90 in 10.0 mi Calm Calm - 0.02 in   Mostly Cloudy
10:56 PM 57.0 °F 53.1 °F 87% 29.91 in 10.0 mi WSW 4.6 mph - 0.01 in Rain Light Rain